This is the latest recevied weather packets stored in our database for station/object N2XP-3. If no packets are shown the sender has not sent any weather packets the latest 10 day(s).
| Time | Temp. | Humidity | Pressure | Rain* | Wind** | Luminosity | Snow |
|---|---|---|---|---|---|---|---|
| 1777906137 | 22.22° C | 34% | 1010.4 hPa | 0 mm | 2.68 m/s, 281° | - | - |
| 1777905837 | 23.33° C | 33% | 1010.5 hPa | 0 mm | 4.02 m/s, 235° | - | - |
| 1777905535 | 23.89° C | 33% | 1010.5 hPa | 0 mm | 1.34 m/s, 195° | - | - |
| 1777905232 | 24.44° C | 31% | 1010.4 hPa | 0 mm | 1.34 m/s, 24° | - | - |
| 1777904994 | 24.44° C | 32% | 1010.5 hPa | 0 mm | 1.79 m/s, 203° | - | - |
| 1777904927 | 24.44° C | 32% | 1010.5 hPa | 0 mm | 1.79 m/s, 203° | - | - |
| 1777904627 | 24.44° C | 31% | 1010.5 hPa | 0 mm | 2.24 m/s, 211° | - | - |
| 1777903114 | 22.78° C | 34% | 1010.7 hPa | 0 mm | 2.24 m/s, 180° | - | - |
| 1777902813 | 22.78° C | 34% | 1010.7 hPa | 0 mm | 2.24 m/s, 270° | - | - |
| 1777902259 | 22.78° C | 34% | 1010.7 hPa | 0 mm | 2.24 m/s, 288° | - | - |
| 1777902209 | 22.78° C | 34% | 1010.7 hPa | 0 mm | 2.24 m/s, 288° | - | - |
| 1777901909 | 22.78° C | 35% | 1010.8 hPa | 0 mm | 1.34 m/s, 240° | - | - |
| 1777901734 | 22.78° C | 35% | 1010.9 hPa | 0 mm | 1.79 m/s, 226° | - | - |
| 1777901606 | 22.78° C | 35% | 1010.9 hPa | 0 mm | 1.79 m/s, 226° | - | - |
| 1777901307 | 21.67° C | 37% | 1011 hPa | 0 mm | 1.79 m/s, 267° | - | - |
| 1777901007 | 20.56° C | 38% | 1011 hPa | 0 mm | 1.34 m/s, 238° | - | - |
| 1777900753 | 20.56° C | 40% | 1011.1 hPa | 0 mm | 2.24 m/s, 288° | - | - |
| 1777900701 | 20.56° C | 40% | 1011.1 hPa | 0 mm | 2.24 m/s, 288° | - | - |
| 1777900399 | 20.56° C | 39% | 1011.1 hPa | 0 mm | 0.89 m/s, 257° | - | - |
| 1777900100 | 21.11° C | 38% | 1011.2 hPa | 0 mm | 3.58 m/s, 236° | - | - |
| 1777899796 | 21.11° C | 39% | 1011.2 hPa | 0 mm | 0.89 m/s, 308° | - | - |
| 1777899682 | 20.56° C | 39% | 1011.2 hPa | 0 mm | 2.68 m/s, 305° | - | - |
| 1777899496 | 20.56° C | 39% | 1011.2 hPa | 0 mm | 2.68 m/s, 305° | - | - |
| 1777899194 | 20° C | 40% | 1011.3 hPa | 0 mm | 3.13 m/s, 295° | - | - |
| 1777898889 | 20° C | 41% | 1011.5 hPa | 0 mm | 0.89 m/s, 200° | - | - |
* Rain latest hour (hover to see other rain measurements)
** Current wind speed in m/s (hover to see current wind gust speed)